Regional Weather Roundup
Issued by NWS

Home | Current Version | Previous Version | Text Only | Print | Product List | Glossary Off
Versions: 1 2 3 4 5 6 7 8 9 10 11 12 13 14 15 16 17 18 19 20 21 22 23 24 25 26 27

000
ASUS45 KPSR 281510
RWRAZ

ARIZONA HOURLY REGIONAL WEATHER ROUNDUP
NATIONAL WEATHER SERVICE PHOENIX AZ
800 AM MST SUN AUG 28 2016

NOTE: FAIR INDICATES FEW OR NO CLOUDS BELOW 12,000 FEET WITH NO
SIGNIFICANT WEATHER AND/OR OBSTRUCTIONS TO VISIBILITY.

AZZ001>003-036-281600-
NORTHWEST ARIZONA

CITY           SKY/WX    TMP DP  RH WIND       PRES   REMARKS
BULLHEAD CITY  SUNNY     75  63  64 CALM      29.99R
KINGMAN        SUNNY     71  55  56 E5        30.15R
$$

AZZ004>008-015-016-018-281600-
NORTH CENTRAL ARIZONA

CITY           SKY/WX    TMP DP  RH WIND       PRES   REMARKS
GRAND CANYON   SUNNY     60  51  72 NE5       30.33R
PRESCOTT       SUNNY     62  55  77 CALM      30.24R
FLAGSTAFF      CLOUDY    52  49  89 CALM      30.34R
PAYSON         SUNNY     68  46  45 E5        30.25S
PAGE           MOSUNNY   67  53  61 CALM      30.22R
$$

AZZ009>014-017-281600-
NORTHEAST ARIZONA

CITY           SKY/WX    TMP DP  RH WIND       PRES   REMARKS
WINSLOW        LGT RAIN  59  56  89 CALM      30.25R
SAINT JOHNS    MOSUNNY   60  50  69 SE5       30.27S
SHOW LOW       MOSUNNY   57  45  62 CALM      30.32R
$$

AZZ023-281600-
GREATER PHOENIX AREA

CITY           SKY/WX    TMP DP  RH WIND       PRES   REMARKS
PHOENIX        MOSUNNY   82  50  32 E6        29.97R
BUCKEYE        SUNNY     79  50  36 E6        29.99S
GLENDALE       MOSUNNY   81  54  39 CALM      29.99R
LUKE AFB       SUNNY     80  54  39 NE3       29.97R
DEER VALLEY    SUNNY     79  51  37 W5        29.99R
SCOTTSDALE     SUNNY     77  53  43 CALM      30.01R
MESA-FALCON    SUNNY    N/A N/A N/A NE6       29.97R
MESA-GATEWAY   SUNNY     93  46  20 SE7         N/A
CHANDLER       SUNNY     77  52  41 CALM      29.99R
$$

AZZ027-028-281600-
SOUTHWEST MARICOPA COUNTY AND PINAL COUNTY

CITY           SKY/WX    TMP DP  RH WIND       PRES   REMARKS
CASA GRANDE    SUNNY     79  41  25 CALM      30.02R
GILA BEND      FAIR      82  40  22 S1        29.96R
$$

AZZ503-504-507>509-281600-
SOUTHEAST ARIZONA

CITY           SKY/WX    TMP DP  RH WIND       PRES   REMARKS
TUCSON         SUNNY     72  45  37 S6        30.09R
DAVIS-MONTHAN  SUNNY     74  43  33 SE7       30.08R
RYAN FIELD     SUNNY     70  46  43 CALM      30.09R
NOGALES        SUNNY     66  45  46 CALM      30.15S
SIERRA VISTA   SUNNY     74  36  25 NW8       30.20R
DOUGLAS        CLOUDY    68  45  43 VRB3      30.16S
SAFFORD        PTSUNNY   74  44  34 CALM      30.10R
$$

AZZ020-021-025-026-031-281600-
SOUTHWEST ARIZONA

CITY           SKY/WX    TMP DP  RH WIND       PRES   REMARKS
YUMA           SUNNY     82  47  29 CALM      29.92R
$$

CAZ031-033-041-043-047-048-061-281600-
SOUTHERN CALIFORNIA

CITY           SKY/WX    TMP DP  RH WIND       PRES   REMARKS
DOWNTOWN L.A.  SUNNY     67  60  78 CALM      30.01R
L.A. AIRPORT   SUNNY     67  60  78 NW5       30.02R
SAN DIEGO      CLOUDY    70  61  73 N7        30.02R
BURBANK        SUNNY     65  57  75 CALM      30.02R
ONTARIO        SUNNY     66  57  72 CALM      30.02R
RIVERSIDE      SUNNY     66  58  75 CALM      30.02S
PALM SPRINGS   SUNNY     82  55  39 CALM      29.96R
EL CENTRO NAS  SUNNY     79  59  50 SW3       29.92R
IMPERIAL       SUNNY     82  57  42 E5        29.90R
BLYTHE         SUNNY     84  51  31 NE3       29.94R
NEEDLES        SUNNY     80  64  58 NE8       29.99R
$$

NVZ020-UTZ003-281600-
SOUTHERN NEVADA-UTAH

CITY           SKY/WX    TMP DP  RH WIND       PRES   REMARKS
LAS VEGAS      SUNNY     79  51  37 NE3       30.06R
SALT LAKE CITY SUNNY     72  44  36 SE15      30.15R
$$

NMZ009-TXZ055-281600-
NEW MEXICO-WEST TEXAS

CITY           SKY/WX    TMP DP  RH WIND       PRES   REMARKS
ALBUQUERQUE    CLOUDY    63  50  62 N8        30.29R
EL PASO        MOSUNNY   72  62  71 NE6       30.17S
$$


........................KEY........................
SKY/WX - SKY CONDITION/WEATHER
TMP    - TEMPERATURE IN FAHRENHEIT
DP     - DEW POINT IN FAHRENHEIT
RH     - RELATIVE HUMIDITY IN PERCENT
WIND   - DIRECTION AND SPEED IN MILES PER HOUR (MPH)
VRB    - VARIABLE WIND DIRECTION
PRES   - MEAN SEA LEVEL PRESSURE IN INCHES OF MERCURY
         F - FALLING PRESSURE   R - RISING PRESSURE
         S - STEADY PRESSURE
VSB    - VISIBILITY IN MILES
HX     - HEAT INDEX IN FAHRENHEIT
WCI    - WIND CHILL INDEX IN FAHRENHEIT
TC     - TEMPERATURE IN CELSIUS WHICH IS ALSO KNOWN AS
         TEMPERATURE IN CENTIGRADE
AFB    - AIR FORCE BASE
         LUKE AFB IS LUKE AIR FORCE BASE
         DAVIS-MONTHAN IS DAVIS-MONTHAN AIR FORCE BASE
NAS    - NAVAL AIR STATION
         EL CENTRO NAS IS EL CENTRO NAVAL AIR STATION
N/A    - NOT AVAILABLE





USA.gov is the U.S. government's official web portal to all federal, state and local government web resources and services.